JBU284 KMCO-KJFK

Flight info

Callsign JBU284
Flight time 2h 9m
Altitude 33000
Route FATHE4 VIYAP Q87 JROSS JOHAR Q109 DFENC SAWED Q108 SIE CAMRN5
Aircraft A321/M-SDE3FGHIRWY/LB1

Departure

Time 2026-05-04 17:37
Airport Orlando International Airport (KMCO)

Arrival

Time 2026-05-04 19:46
Airport John F. Kennedy International Airport (KJFK)
Time Latitude Longitude Altitude Speed Heading
2026-05-04 17:15 28.41411 -81.31468 100 ft 0 kts 90°
2026-05-04 17:25 28.41411 -81.31472 100 ft 3 kts 90°
2026-05-04 17:25 28.41405 -81.31532 100 ft 4 kts 71°
2026-05-04 17:26 28.41377 -81.31568 98 ft 1 kts
2026-05-04 17:26 28.41373 -81.31569 97 ft 0 kts
2026-05-04 17:34 28.41430 -81.31562 100 ft 8 kts
2026-05-04 17:34 28.41499 -81.31554 100 ft 12 kts
2026-05-04 17:35 28.41747 -81.31824 103 ft 24 kts 296°
2026-05-04 17:35 28.41552 -81.32062 103 ft 25 kts 265°
2026-05-04 17:35 28.41610 -81.32195 103 ft 23 kts 350°
2026-05-04 17:36 28.41876 -81.32200 103 ft 66 kts 359°
2026-05-04 17:36 28.42526 -81.32207 110 ft 119 kts 360°
2026-05-04 17:36 28.43519 -81.32223 104 ft 164 kts 359°
2026-05-04 17:36 28.44681 -81.32284 557 ft 170 kts 359°
2026-05-04 17:37 28.45898 -81.32355 1179 ft 177 kts
2026-05-04 17:37 28.47122 -81.32368 2094 ft 176 kts
2026-05-04 17:37 28.48434 -81.32335 2614 ft 204 kts
2026-05-04 17:37 28.49945 -81.32316 2918 ft 230 kts
2026-05-04 17:38 28.51574 -81.32309 3375 ft 241 kts
2026-05-04 17:38 28.53259 -81.32325 4026 ft 244 kts
2026-05-04 17:38 28.54974 -81.32323 4698 ft 247 kts
2026-05-04 17:38 28.56722 -81.32194 5222 ft 257 kts
2026-05-04 17:39 28.60441 -81.31850 6277 ft 274 kts
2026-05-04 17:39 28.62356 -81.31674 6902 ft 278 kts
2026-05-04 17:39 28.64301 -81.31452 7494 ft 282 kts
2026-05-04 17:40 28.66260 -81.31189 8132 ft 285 kts
2026-05-04 17:40 28.68245 -81.30924 8734 ft 290 kts
2026-05-04 17:40 28.70259 -81.30657 9351 ft 293 kts
2026-05-04 17:40 28.72288 -81.30391 9994 ft 295 kts
2026-05-04 17:41 28.74357 -81.30122 10429 ft 305 kts
2026-05-04 17:41 28.76524 -81.29842 10684 ft 321 kts
2026-05-04 17:41 28.78799 -81.29548 10901 ft 337 kts
2026-05-04 17:41 28.81185 -81.29238 11110 ft 353 kts
2026-05-04 17:42 28.83683 -81.28940 11302 ft 367 kts
2026-05-04 17:42 28.86264 -81.29010 11630 ft 374 kts 354°
2026-05-04 17:42 28.88873 -81.29232 12143 ft 378 kts 353°
2026-05-04 17:42 28.91471 -81.29463 12681 ft 381 kts 353°
2026-05-04 17:43 28.94120 -81.29694 13237 ft 383 kts 353°
2026-05-04 17:43 28.96793 -81.29925 13807 ft 385 kts 353°
2026-05-04 17:43 28.99471 -81.30167 14322 ft 387 kts 352°
2026-05-04 17:43 29.02163 -81.30462 14787 ft 390 kts 352°
2026-05-04 17:44 29.04878 -81.30766 15256 ft 393 kts 352°
2026-05-04 17:44 29.07603 -81.31070 15722 ft 395 kts 352°
2026-05-04 17:44 29.10354 -81.31369 16193 ft 398 kts 352°
2026-05-04 17:44 29.13132 -81.31561 16640 ft 402 kts 354°
2026-05-04 17:45 29.15933 -81.31729 17092 ft 404 kts 354°
2026-05-04 17:45 29.18759 -81.31895 17543 ft 407 kts 354°
2026-05-04 17:45 29.21600 -81.32062 17974 ft 410 kts 353°
2026-05-04 17:45 29.24460 -81.32238 18416 ft 413 kts 353°
2026-05-04 17:46 29.27336 -81.32409 18791 ft 415 kts 353°
2026-05-04 17:46 29.30229 -81.32579 19169 ft 417 kts 353°
2026-05-04 17:46 29.33136 -81.32747 19557 ft 420 kts 353°
2026-05-04 17:46 29.36061 -81.32908 19945 ft 422 kts 353°
2026-05-04 17:47 29.38994 -81.33075 20324 ft 423 kts 352°
2026-05-04 17:47 29.41920 -81.33254 20689 ft 426 kts 352°
2026-05-04 17:47 29.44884 -81.33438 21051 ft 428 kts 352°
2026-05-04 17:47 29.47867 -81.33631 21416 ft 430 kts 352°
2026-05-04 17:48 29.50864 -81.33807 21771 ft 432 kts 352°
2026-05-04 17:48 29.53874 -81.33989 22121 ft 434 kts 352°
2026-05-04 17:48 29.56897 -81.34176 22465 ft 436 kts 352°
2026-05-04 17:48 29.59934 -81.34355 22803 ft 438 kts 352°
2026-05-04 17:49 29.62985 -81.34546 23139 ft 440 kts 351°
2026-05-04 17:49 29.66051 -81.34735 23476 ft 442 kts 352°
2026-05-04 17:49 29.69134 -81.34905 23772 ft 445 kts 352°
2026-05-04 17:49 29.72234 -81.35077 24050 ft 446 kts 352°
2026-05-04 17:50 29.75343 -81.35255 24336 ft 448 kts 352°
2026-05-04 17:50 29.78460 -81.35430 24615 ft 449 kts 351°
2026-05-04 17:50 29.81585 -81.35606 24891 ft 451 kts 351°
2026-05-04 17:50 29.84724 -81.35788 25167 ft 452 kts 351°
2026-05-04 17:51 29.87873 -81.35978 25426 ft 453 kts 351°
2026-05-04 17:51 29.91032 -81.36188 25701 ft 455 kts 351°
2026-05-04 17:51 29.94195 -81.36389 25962 ft 456 kts 351°
2026-05-04 17:51 29.97378 -81.36568 26224 ft 458 kts 351°
2026-05-04 17:52 30.00565 -81.36749 26475 ft 459 kts 351°
2026-05-04 17:52 30.03764 -81.36934 26714 ft 461 kts 351°
2026-05-04 17:52 30.06971 -81.37119 26965 ft 462 kts 350°
2026-05-04 17:52 30.10143 -81.37300 27203 ft 463 kts 350°
2026-05-04 17:53 30.13410 -81.37495 27442 ft 464 kts 350°
2026-05-04 17:53 30.16591 -81.37680 27754 ft 463 kts 350°
2026-05-04 17:53 30.19811 -81.37859 28090 ft 462 kts 350°
2026-05-04 17:53 30.23017 -81.38042 28409 ft 461 kts 350°
2026-05-04 17:54 30.26225 -81.38222 28738 ft 460 kts 350°
2026-05-04 17:54 30.29420 -81.38408 29067 ft 458 kts 349°
2026-05-04 17:54 30.32602 -81.38589 29385 ft 457 kts 349°
2026-05-04 17:54 30.35782 -81.38771 29694 ft 456 kts 349°
2026-05-04 17:55 30.38944 -81.38952 30002 ft 455 kts 349°
2026-05-04 17:55 30.42104 -81.39135 30289 ft 454 kts 349°
2026-05-04 17:55 30.45259 -81.39316 30539 ft 453 kts 349°
2026-05-04 17:55 30.48411 -81.39493 30766 ft 453 kts 349°
2026-05-04 17:56 30.51557 -81.39658 31002 ft 453 kts 349°
2026-05-04 17:56 30.54701 -81.39820 31240 ft 452 kts 349°
2026-05-04 17:56 30.57839 -81.39986 31470 ft 451 kts 349°
2026-05-04 17:56 30.60971 -81.40150 31706 ft 450 kts 349°
2026-05-04 17:57 30.64099 -81.40312 31940 ft 450 kts 349°
2026-05-04 17:57 30.67217 -81.40477 32165 ft 449 kts 348°
2026-05-04 17:57 30.70295 -81.40640 32387 ft 448 kts 348°
2026-05-04 17:57 30.73408 -81.40806 32592 ft 448 kts 348°
2026-05-04 17:58 30.76514 -81.40971 32803 ft 447 kts 348°
2026-05-04 17:58 30.79621 -81.41132 33015 ft 446 kts 348°
2026-05-04 17:58 30.82726 -81.41293 33173 ft 446 kts 348°
2026-05-04 17:58 30.85828 -81.41452 33188 ft 445 kts 348°
2026-05-04 17:59 30.92006 -81.41780 33151 ft 445 kts 348°
2026-05-04 18:00 31.01277 -81.42266 33145 ft 444 kts 348°
2026-05-04 18:00 31.07458 -81.42601 33147 ft 444 kts 348°
2026-05-04 18:01 31.13636 -81.42936 33148 ft 444 kts 348°
2026-05-04 18:01 31.19771 -81.43262 33143 ft 444 kts 348°
2026-05-04 18:02 31.26018 -81.42829 33161 ft 464 kts
2026-05-04 18:02 31.29119 -81.41601 33171 ft 477 kts 14°
2026-05-04 18:02 31.35154 -81.38232 33161 ft 480 kts 17°
2026-05-04 18:03 31.41195 -81.34924 33151 ft 479 kts 16°
2026-05-04 18:03 31.47238 -81.31660 33151 ft 479 kts 16°
2026-05-04 18:04 31.53284 -81.28373 33139 ft 478 kts 16°
2026-05-04 18:05 31.62341 -81.23442 33134 ft 478 kts 17°
2026-05-04 18:05 31.68377 -81.20135 33133 ft 478 kts 17°
2026-05-04 18:06 31.77385 -81.15215 33123 ft 478 kts 17°
2026-05-04 18:06 31.83398 -81.11862 33119 ft 478 kts 18°
2026-05-04 18:07 31.88391 -81.09081 33114 ft 477 kts 17°
2026-05-04 18:07 31.94409 -81.05800 33116 ft 477 kts 17°
2026-05-04 18:08 32.00428 -81.02518 33113 ft 477 kts 18°
2026-05-04 18:08 32.06429 -80.99150 33118 ft 477 kts 18°
2026-05-04 18:09 32.18429 -80.92508 33155 ft 475 kts 18°
2026-05-04 18:10 32.24400 -80.89149 33152 ft 475 kts 18°
2026-05-04 18:10 32.30373 -80.85783 33158 ft 475 kts 18°
2026-05-04 18:11 32.36339 -80.82421 33141 ft 475 kts 18°
2026-05-04 18:11 32.42274 -80.79077 33147 ft 475 kts 18°
2026-05-04 18:12 32.48239 -80.75704 33142 ft 475 kts 19°
2026-05-04 18:12 32.54206 -80.72319 33143 ft 475 kts 19°
2026-05-04 18:13 32.60167 -80.68918 33139 ft 475 kts 19°
2026-05-04 18:14 32.69099 -80.63799 33132 ft 478 kts 22°
2026-05-04 18:14 32.71886 -80.61598 33133 ft 487 kts 33°
2026-05-04 18:14 32.74377 -80.58823 33138 ft 492 kts 41°
2026-05-04 18:15 32.83842 -80.47051 33140 ft 492 kts 41°
2026-05-04 18:16 32.88591 -80.41220 33137 ft 491 kts 41°
2026-05-04 18:16 32.93310 -80.35413 33115 ft 491 kts 41°
2026-05-04 18:17 33.00443 -80.26644 33113 ft 491 kts 41°
2026-05-04 18:18 33.07552 -80.17868 33103 ft 490 kts 41°
2026-05-04 18:18 33.12306 -80.12022 33128 ft 490 kts 42°
2026-05-04 18:19 33.19395 -80.03226 33131 ft 490 kts 42°
2026-05-04 18:19 33.24122 -79.97342 33132 ft 490 kts 41°
2026-05-04 18:20 33.28840 -79.91467 33128 ft 490 kts 42°
2026-05-04 18:20 33.33554 -79.85581 33125 ft 490 kts 42°
2026-05-04 18:21 33.38261 -79.79692 33120 ft 489 kts 42°
2026-05-04 18:21 33.42911 -79.73825 33116 ft 489 kts 43°
2026-05-04 18:22 33.47566 -79.67887 33120 ft 489 kts 42°
2026-05-04 18:22 33.52249 -79.61964 33113 ft 489 kts 43°
2026-05-04 18:23 33.56983 -79.56107 33121 ft 488 kts 41°
2026-05-04 18:23 33.61668 -79.50274 33118 ft 489 kts 42°
2026-05-04 18:24 33.66357 -79.44367 33119 ft 488 kts 42°
2026-05-04 18:24 33.71038 -79.38444 33119 ft 489 kts 42°
2026-05-04 18:25 33.75724 -79.32520 33127 ft 489 kts 43°
2026-05-04 18:25 33.80402 -79.26573 33129 ft 489 kts 43°
2026-05-04 18:26 33.85061 -79.20625 33130 ft 489 kts 42°
2026-05-04 18:26 33.89741 -79.14671 33132 ft 489 kts 43°
2026-05-04 18:27 33.94426 -79.08735 33130 ft 489 kts 43°
2026-05-04 18:27 33.99063 -79.02800 33123 ft 489 kts 43°
2026-05-04 18:28 34.03730 -78.96822 33117 ft 489 kts 43°
2026-05-04 18:28 34.08407 -78.90837 33121 ft 490 kts 43°
2026-05-04 18:29 34.13065 -78.84839 33121 ft 490 kts 43°
2026-05-04 18:29 34.17737 -78.78826 33128 ft 490 kts 43°
2026-05-04 18:30 34.24725 -78.69800 33137 ft 490 kts 43°
2026-05-04 18:31 34.29396 -78.63783 33130 ft 490 kts 43°
2026-05-04 18:31 34.34192 -78.58046 33125 ft 485 kts 33°
2026-05-04 18:32 34.39502 -78.53026 33115 ft 484 kts 33°
2026-05-04 18:32 34.44827 -78.48012 33107 ft 484 kts 33°
2026-05-04 18:33 34.50114 -78.42941 33106 ft 484 kts 32°
2026-05-04 18:33 34.55448 -78.37953 33104 ft 484 kts 32°
2026-05-04 18:34 34.60749 -78.32901 33103 ft 485 kts 33°
2026-05-04 18:34 34.66067 -78.27866 33097 ft 484 kts 33°
2026-05-04 18:35 34.71368 -78.22810 33105 ft 484 kts 32°
2026-05-04 18:35 34.76661 -78.17759 33109 ft 483 kts 33°
2026-05-04 18:36 34.81951 -78.12717 33106 ft 483 kts 33°
2026-05-04 18:36 34.87236 -78.07634 33103 ft 483 kts 32°
2026-05-04 18:37 34.92537 -78.02603 33091 ft 484 kts 33°
2026-05-04 18:37 34.97790 -77.97552 33091 ft 483 kts 32°
2026-05-04 18:38 35.03087 -77.92501 33091 ft 484 kts 33°
2026-05-04 18:38 35.08384 -77.87427 33092 ft 484 kts 33°
2026-05-04 18:39 35.13662 -77.82320 33095 ft 484 kts 33°
2026-05-04 18:39 35.18967 -77.77250 33098 ft 483 kts 32°
2026-05-04 18:40 35.24254 -77.72154 33099 ft 484 kts 32°
2026-05-04 18:40 35.29536 -77.67045 33107 ft 484 kts 33°
2026-05-04 18:41 35.34787 -77.61973 33107 ft 484 kts 32°
2026-05-04 18:41 35.40071 -77.56849 33109 ft 484 kts 33°
2026-05-04 18:42 35.45355 -77.51734 33101 ft 484 kts 32°
2026-05-04 18:42 35.50617 -77.46581 33071 ft 484 kts 33°
2026-05-04 18:43 35.55870 -77.41400 33065 ft 484 kts 33°
2026-05-04 18:43 35.61117 -77.36214 33064 ft 484 kts 32°
2026-05-04 18:44 35.66414 -77.31107 33063 ft 484 kts 32°
2026-05-04 18:44 35.71681 -77.26021 33065 ft 484 kts 32°
2026-05-04 18:45 35.76944 -77.20830 33065 ft 484 kts 32°
2026-05-04 18:45 35.82218 -77.15671 33064 ft 484 kts 32°
2026-05-04 18:46 35.87475 -77.10468 33066 ft 485 kts 32°
2026-05-04 18:46 35.92823 -77.05454 33061 ft 478 kts 25°
2026-05-04 18:47 35.98529 -77.01276 33066 ft 476 kts 23°
2026-05-04 18:47 36.04243 -76.97128 33062 ft 476 kts 23°
2026-05-04 18:48 36.09949 -76.92980 33054 ft 476 kts 23°
2026-05-04 18:48 36.15658 -76.88797 33049 ft 476 kts 23°
2026-05-04 18:49 36.21368 -76.84615 33036 ft 476 kts 22°
2026-05-04 18:49 36.27070 -76.80428 33051 ft 477 kts 23°
2026-05-04 18:50 36.32775 -76.76225 33044 ft 476 kts 22°
2026-05-04 18:50 36.38474 -76.72045 33035 ft 476 kts 23°
2026-05-04 18:51 36.44120 -76.67855 33049 ft 475 kts 22°
2026-05-04 18:51 36.49801 -76.63689 33049 ft 474 kts 23°
2026-05-04 18:52 36.55468 -76.59478 33052 ft 474 kts 22°
2026-05-04 18:52 36.61131 -76.55283 33056 ft 473 kts 22°
2026-05-04 18:53 36.65871 -76.51767 33050 ft 473 kts 22°
2026-05-04 18:53 36.71491 -76.47589 33049 ft 473 kts 23°
2026-05-04 18:54 36.77133 -76.43363 33052 ft 472 kts 23°
2026-05-04 18:54 36.82656 -76.39259 33053 ft 472 kts 23°
2026-05-04 18:55 36.88287 -76.35031 33032 ft 472 kts 23°
2026-05-04 18:55 36.96726 -76.28712 33043 ft 471 kts 23°
2026-05-04 18:56 37.02354 -76.24491 33026 ft 471 kts 24°
2026-05-04 18:56 37.07974 -76.20262 33027 ft 471 kts 24°
2026-05-04 18:57 37.13539 -76.16051 33023 ft 469 kts 24°
2026-05-04 18:57 37.19142 -76.11821 33012 ft 468 kts 24°
2026-05-04 18:58 37.24685 -76.07637 33012 ft 467 kts 24°
2026-05-04 18:58 37.30243 -76.03418 33019 ft 466 kts 25°
2026-05-04 18:59 37.35783 -75.99196 33023 ft 465 kts 25°
2026-05-04 18:59 37.41180 -75.95108 33025 ft 464 kts 25°
2026-05-04 19:00 37.45407 -75.91887 33010 ft 464 kts 25°
2026-05-04 19:00 37.50930 -75.87693 33018 ft 463 kts 25°
2026-05-04 19:01 37.56433 -75.83503 33028 ft 462 kts 24°
2026-05-04 19:01 37.61868 -75.79473 33023 ft 461 kts 24°
2026-05-04 19:02 37.67343 -75.75372 33028 ft 460 kts 25°
2026-05-04 19:02 37.72868 -75.71208 33037 ft 459 kts 25°
2026-05-04 19:03 37.78325 -75.67105 33027 ft 459 kts 25°
2026-05-04 19:03 37.83787 -75.62958 33012 ft 458 kts 26°
2026-05-04 19:04 37.89082 -75.58444 33014 ft 458 kts 29°
2026-05-04 19:04 37.94335 -75.53854 33024 ft 457 kts 28°
2026-05-04 19:05 37.99544 -75.49318 33024 ft 456 kts 29°
2026-05-04 19:05 38.04749 -75.44759 33025 ft 453 kts 28°
2026-05-04 19:06 38.09854 -75.40589 33014 ft 450 kts 27°
2026-05-04 19:06 38.14504 -75.36800 33013 ft 449 kts 27°
2026-05-04 19:07 38.19284 -75.32865 33003 ft 449 kts 27°
2026-05-04 19:07 38.24101 -75.29036 32994 ft 444 kts 20°
2026-05-04 19:08 38.26968 -75.27709 32996 ft 434 kts
2026-05-04 19:08 38.29554 -75.27091 33004 ft 431 kts
2026-05-04 19:08 38.35491 -75.25958 33010 ft 431 kts
2026-05-04 19:09 38.40589 -75.24915 33007 ft 431 kts
2026-05-04 19:09 38.46473 -75.23676 32999 ft 431 kts
2026-05-04 19:10 38.51825 -75.22536 32968 ft 430 kts
2026-05-04 19:10 38.57719 -75.21274 32977 ft 429 kts
2026-05-04 19:11 38.63613 -75.20045 32982 ft 429 kts
2026-05-04 19:11 38.69473 -75.18450 32981 ft 437 kts 14°
2026-05-04 19:12 38.72235 -75.16755 32982 ft 446 kts 27°
2026-05-04 19:12 38.77181 -75.12033 32986 ft 451 kts 32°
2026-05-04 19:13 38.82134 -75.07113 32991 ft 450 kts 32°
2026-05-04 19:13 38.87084 -75.02227 32567 ft 448 kts 32°
2026-05-04 19:13 38.89561 -74.99798 32283 ft 448 kts 32°
2026-05-04 19:14 38.92046 -74.97360 32023 ft 449 kts 32°
2026-05-04 19:14 38.94519 -74.94915 31762 ft 449 kts 32°
2026-05-04 19:14 38.96994 -74.92455 31504 ft 449 kts 32°
2026-05-04 19:14 38.99471 -74.89995 31251 ft 449 kts 32°
2026-05-04 19:15 39.01945 -74.87545 31004 ft 449 kts 32°
2026-05-04 19:15 39.04432 -74.85097 30755 ft 450 kts 32°
2026-05-04 19:15 39.06912 -74.82654 30507 ft 450 kts 32°
2026-05-04 19:15 39.09396 -74.80181 30262 ft 451 kts 33°
2026-05-04 19:16 39.11821 -74.77606 30004 ft 452 kts 34°
2026-05-04 19:16 39.14238 -74.75003 29714 ft 453 kts 34°
2026-05-04 19:16 39.16660 -74.72394 29424 ft 453 kts 34°
2026-05-04 19:16 39.19076 -74.69790 29017 ft 452 kts 34°
2026-05-04 19:17 39.21477 -74.67193 28393 ft 449 kts 34°
2026-05-04 19:17 39.23859 -74.64615 27768 ft 446 kts 34°
2026-05-04 19:17 39.26232 -74.62042 27152 ft 444 kts 35°
2026-05-04 19:17 39.28589 -74.59488 26516 ft 442 kts 35°
2026-05-04 19:18 39.30940 -74.56937 25915 ft 440 kts 35°
2026-05-04 19:18 39.33271 -74.54401 25334 ft 437 kts 35°
2026-05-04 19:18 39.35587 -74.51880 24782 ft 434 kts 35°
2026-05-04 19:18 39.37891 -74.49373 24216 ft 431 kts 35°
2026-05-04 19:19 39.40181 -74.46882 23661 ft 429 kts 35°
2026-05-04 19:19 39.42430 -74.44429 23046 ft 426 kts 35°
2026-05-04 19:19 39.44689 -74.41965 22447 ft 423 kts 35°
2026-05-04 19:19 39.46923 -74.39519 21854 ft 420 kts 36°
2026-05-04 19:20 39.49148 -74.37081 21281 ft 416 kts 36°
2026-05-04 19:20 39.51348 -74.34678 20728 ft 413 kts 36°
2026-05-04 19:20 39.53538 -74.32288 20186 ft 409 kts 36°
2026-05-04 19:20 39.55706 -74.29912 19657 ft 406 kts 36°
2026-05-04 19:21 39.57849 -74.27561 19186 ft 402 kts 36°
2026-05-04 19:21 39.59984 -74.25215 18999 ft 401 kts 36°
2026-05-04 19:21 39.62110 -74.22878 18958 ft 401 kts 36°
2026-05-04 19:21 39.64237 -74.20540 18738 ft 401 kts 36°
2026-05-04 19:22 39.66381 -74.18188 17834 ft 407 kts 36°
2026-05-04 19:22 39.68565 -74.15787 16845 ft 413 kts 36°
2026-05-04 19:22 39.70745 -74.13381 16283 ft 408 kts 37°
2026-05-04 19:22 39.72884 -74.11015 15853 ft 400 kts 36°
2026-05-04 19:23 39.74978 -74.08701 15472 ft 390 kts 36°
2026-05-04 19:23 39.76996 -74.06466 15097 ft 383 kts 36°
2026-05-04 19:23 39.79006 -74.04242 14732 ft 377 kts 36°
2026-05-04 19:23 39.80994 -74.02044 14370 ft 372 kts 36°
2026-05-04 19:24 39.82951 -73.99880 13995 ft 367 kts 36°
2026-05-04 19:24 39.84989 -73.97964 13625 ft 357 kts 26°
2026-05-04 19:24 39.87140 -73.96394 13274 ft 351 kts 24°
2026-05-04 19:24 39.89273 -73.94875 12920 ft 348 kts 24°
2026-05-04 19:25 39.91397 -73.93386 12598 ft 346 kts 23°
2026-05-04 19:25 39.93512 -73.91909 12267 ft 342 kts 23°
2026-05-04 19:25 39.95603 -73.90435 11933 ft 341 kts 24°
2026-05-04 19:25 39.97679 -73.88954 11606 ft 339 kts 24°
2026-05-04 19:26 39.99768 -73.87425 11288 ft 355 kts 26°
2026-05-04 19:26 40.01893 -73.85743 10977 ft 356 kts 27°
2026-05-04 19:26 40.03978 -73.84061 10654 ft 347 kts 27°
2026-05-04 19:26 40.05978 -73.82442 10340 ft 339 kts 27°
2026-05-04 19:27 40.07959 -73.80835 10012 ft 331 kts 27°
2026-05-04 19:27 40.09895 -73.79266 9693 ft 324 kts 27°
2026-05-04 19:27 40.11783 -73.77734 9360 ft 314 kts 27°
2026-05-04 19:27 40.13607 -73.76251 9066 ft 302 kts 27°
2026-05-04 19:28 40.15362 -73.74819 8786 ft 293 kts 27°
2026-05-04 19:28 40.17086 -73.73413 8519 ft 292 kts 27°
2026-05-04 19:28 40.18808 -73.72011 8283 ft 291 kts 27°
2026-05-04 19:28 40.20528 -73.70617 8049 ft 290 kts 27°
2026-05-04 19:29 40.22245 -73.69227 7796 ft 290 kts 27°
2026-05-04 19:29 40.23955 -73.67845 7545 ft 289 kts 27°
2026-05-04 19:29 40.25665 -73.66466 7294 ft 288 kts 27°
2026-05-04 19:29 40.27370 -73.65090 7047 ft 288 kts 27°
2026-05-04 19:30 40.29046 -73.63737 6802 ft 286 kts 27°
2026-05-04 19:30 40.30739 -73.62367 6548 ft 286 kts 27°
2026-05-04 19:30 40.32428 -73.61000 6315 ft 285 kts 27°
2026-05-04 19:30 40.34109 -73.59640 6057 ft 284 kts 27°
2026-05-04 19:31 40.35717 -73.58439 5788 ft 282 kts 20°
2026-05-04 19:31 40.37514 -73.57433 5588 ft 280 kts 18°
2026-05-04 19:31 40.39295 -73.56503 5438 ft 281 kts 17°
2026-05-04 19:31 40.41116 -73.55563 5298 ft 280 kts 17°
2026-05-04 19:32 40.42933 -73.54628 5168 ft 281 kts 17°
2026-05-04 19:32 40.44749 -73.53701 5042 ft 280 kts 17°
2026-05-04 19:32 40.46573 -73.52772 4916 ft 281 kts 17°
2026-05-04 19:32 40.48398 -73.51851 4787 ft 281 kts 17°
2026-05-04 19:33 40.50222 -73.50936 4648 ft 277 kts 17°
2026-05-04 19:33 40.51982 -73.50053 4510 ft 266 kts 17°
2026-05-04 19:33 40.53678 -73.49198 4365 ft 255 kts 17°
2026-05-04 19:33 40.55285 -73.48380 4218 ft 246 kts 17°
2026-05-04 19:34 40.56849 -73.47580 4065 ft 237 kts 17°
2026-05-04 19:34 40.58389 -73.46792 3928 ft 238 kts 17°
2026-05-04 19:34 40.59926 -73.46010 3793 ft 236 kts 17°
2026-05-04 19:34 40.61177 -73.45378 3686 ft 237 kts 17°
2026-05-04 19:35 40.62032 -73.44947 3603 ft 235 kts 17°
2026-05-04 19:35 40.63566 -73.44174 3466 ft 237 kts 17°
2026-05-04 19:35 40.65098 -73.43394 3319 ft 237 kts 17°
2026-05-04 19:35 40.66115 -73.42879 3242 ft 236 kts 17°
2026-05-04 19:36 40.67662 -73.42100 3097 ft 237 kts 17°
2026-05-04 19:36 40.68659 -73.41597 3029 ft 235 kts 17°
2026-05-04 19:36 40.69976 -73.41001 2931 ft 232 kts
2026-05-04 19:36 40.71529 -73.41126 2930 ft 221 kts 333°
2026-05-04 19:37 40.72835 -73.42130 2985 ft 217 kts 318°
2026-05-04 19:37 40.74042 -73.43319 3028 ft 216 kts 317°
2026-05-04 19:37 40.74829 -73.44114 3009 ft 214 kts 317°
2026-05-04 19:37 40.76389 -73.45715 3021 ft 214 kts 317°
2026-05-04 19:38 40.77564 -73.46927 2996 ft 214 kts 315°
2026-05-04 19:38 40.78502 -73.48399 2989 ft 210 kts 298°
2026-05-04 19:38 40.79038 -73.49502 2962 ft 210 kts 297°
2026-05-04 19:38 40.79801 -73.51113 3005 ft 211 kts 297°
2026-05-04 19:39 40.80570 -73.52758 3019 ft 209 kts 297°
2026-05-04 19:39 40.81337 -73.54396 3004 ft 210 kts 297°
2026-05-04 19:39 40.82104 -73.56037 2998 ft 209 kts 297°
2026-05-04 19:39 40.82860 -73.57676 3006 ft 208 kts 294°
2026-05-04 19:40 40.83115 -73.59412 2983 ft 184 kts 253°
2026-05-04 19:40 40.82506 -73.60829 3029 ft 182 kts 230°
2026-05-04 19:40 40.81552 -73.61942 3049 ft 183 kts 220°
2026-05-04 19:40 40.80509 -73.62893 3049 ft 182 kts 216°
2026-05-04 19:41 40.79422 -73.63779 2958 ft 183 kts 214°
2026-05-04 19:41 40.78329 -73.64646 3012 ft 184 kts 213°
2026-05-04 19:41 40.77268 -73.65481 2854 ft 169 kts 214°
2026-05-04 19:41 40.76309 -73.66236 2687 ft 153 kts 214°
2026-05-04 19:42 40.75432 -73.66926 2508 ft 144 kts 213°
2026-05-04 19:42 40.74596 -73.67584 2351 ft 135 kts 214°
2026-05-04 19:42 40.73786 -73.68222 2193 ft 137 kts 214°
2026-05-04 19:42 40.72971 -73.68861 2008 ft 134 kts 214°
2026-05-04 19:43 40.72184 -73.69480 1781 ft 133 kts 213°
2026-05-04 19:43 40.71378 -73.70117 1626 ft 135 kts 213°
2026-05-04 19:43 40.70583 -73.70749 1526 ft 133 kts 213°
2026-05-04 19:43 40.69787 -73.71380 1283 ft 133 kts 212°
2026-05-04 19:44 40.69011 -73.72013 1013 ft 132 kts 211°
2026-05-04 19:44 40.68235 -73.72614 780 ft 129 kts 210°
2026-05-04 19:44 40.67452 -73.73229 624 ft 132 kts 209°
2026-05-04 19:45 40.66664 -73.73859 493 ft 132 kts 208°
2026-05-04 19:45 40.65880 -73.74464 312 ft 128 kts 207°
2026-05-04 19:45 40.65092 -73.75056 207 ft 131 kts 207°
2026-05-04 19:45 40.64311 -73.75665 56 ft 129 kts 207°
2026-05-04 19:46 40.63605 -73.76204 24 ft 101 kts 210°
2026-05-04 19:46 40.63147 -73.76567 23 ft 39 kts 213°
2026-05-04 19:46 40.63049 -73.76668 23 ft 17 kts 223°
2026-05-04 19:46 40.62969 -73.76800 24 ft 19 kts 239°
2026-05-04 19:47 40.62934 -73.76962 24 ft 19 kts 285°
2026-05-04 19:47 40.62998 -73.77123 22 ft 21 kts 302°
2026-05-04 19:47 40.63077 -73.77298 21 ft 24 kts 301°
2026-05-04 19:47 40.63165 -73.77490 22 ft 26 kts 301°
2026-05-04 19:48 40.63264 -73.77707 27 ft 29 kts 301°
2026-05-04 19:48 40.63313 -73.77816 24 ft 10 kts 301°
2026-05-04 19:48 40.63369 -73.77906 22 ft 15 kts 347°
2026-05-04 19:48 40.63480 -73.77849 21 ft 20 kts 29°
2026-05-04 19:49 40.63610 -73.77745 21 ft 24 kts 31°
2026-05-04 19:49 40.63765 -73.77626 22 ft 28 kts 30°
2026-05-04 19:49 40.63941 -73.77488 21 ft 31 kts 31°
2026-05-04 19:49 40.64137 -73.77334 21 ft 34 kts 31°
2026-05-04 19:50 40.64351 -73.77167 21 ft 37 kts 31°
2026-05-04 19:50 40.64581 -73.77088 21 ft 33 kts
2026-05-04 19:50 40.64748 -73.77233 23 ft 31 kts 302°
2026-05-04 19:50 40.64733 -73.77359 21 ft 10 kts 167°
2026-05-04 19:51 40.64683 -73.77288 22 ft 10 kts 125°
2026-05-04 19:51 40.64622 -73.77248 21 ft 4 kts 166°
2026-05-04 19:51 40.64616 -73.77246 21 ft 0 kts 166°